User: anonymous   Login
Location: Unspecified
(0.0000°N, 0.0000°E)
Time: 09:53:10
(UTC+02:00)
Language:

Cosmos 773 Rocket - Orbit

View from above orbital plane
View from above orbital plane
View from above satellite
View from above satellite

Ground track
Ground track

The orbit data is extracted from the following two-line orbital elements,

1 08344U 75094B   16243.19941980  .00000093  00000-0  38437-4 0  9992
2 08344  74.0575 301.8070 0023114 276.1034  83.7487 14.39064315143823
Epoch (UTC): 30 August 2016 04:47:09
Eccentricity: 0.0023114
inclination: 74.0575°
perigee height: 745 km
apogee height: 778 km
right ascension of ascending node: 301.8070°
argument of perigee: 276.1034°
revolutions per day: 14.39064315
mean anomaly at epoch: 83.7487°
orbit number at epoch: 14382

The dashed part of the orbit path shows where the satellite is in the earth's shadow,  

DLR